Hourly Weather Belgorod-Dnistrovsky

Today, 15 July, Wednesday

Time Temperature Precipitation Wind Pressure Humidity
00:00 +17°C° 0 mm 4 mps 756 mmHg 64%
01:00 +16°C° 0 mm 3 mps 756 mmHg 67%
02:00 +16°C° 0 mm 3 mps 756 mmHg 70%
03:00 +14°C° 0 mm 3 mps 756 mmHg 71%
04:00 +14°C° 0 mm 3 mps 756 mmHg 72%
05:00 +14°C° 0 mm 3 mps 756 mmHg 73%
06:00 +17°C° 0 mm 2 mps 756 mmHg 67%
07:00 +19°C° 0 mm 2 mps 756 mmHg 61%
08:00 +21°C° 0 mm 2 mps 756 mmHg 55%
09:00 +23°C° 0 mm 2 mps 756 mmHg 50%
10:00 +24°C° 0 mm 2 mps 756 mmHg 45%
11:00 +25°C° 0 mm 2 mps 757 mmHg 40%
12:00 +26°C° 0 mm 3 mps 756 mmHg 39%
13:00 +26°C° 0 mm 3 mps 756 mmHg 39%
14:00 +26°C° 0 mm 4 mps 756 mmHg 39%
15:00 +26°C° 0 mm 4 mps 756 mmHg 40%
16:00 +26°C° 0 mm 4 mps 756 mmHg 41%
17:00 +26°C° 0 mm 4 mps 755 mmHg 42%
18:00 +23°C° 0 mm 4 mps 755 mmHg 49%
19:00 +22°C° 0 mm 4 mps 756 mmHg 55%
20:00 +20°C° 0 mm 4 mps 756 mmHg 62%
21:00 +20°C° 0 mm 4 mps 756 mmHg 64%
22:00 +20°C° 0 mm 4 mps 756 mmHg 66%
23:00 +19°C° 0 mm 4 mps 756 mmHg 68%

Tomorrow, 16 July, Thursday

Time Temperature Precipitation Wind Pressure Humidity
00:00 +19°C° 0 mm 4 mps 756 mmHg 70%
01:00 +18°C° 0 mm 4 mps 756 mmHg 71%
02:00 +18°C° 0 mm 3 mps 756 mmHg 73%
03:00 +18°C° 0 mm 3 mps 755 mmHg 74%
04:00 +18°C° 0 mm 3 mps 755 mmHg 75%
05:00 +17°C° 0 mm 2 mps 755 mmHg 77%
06:00 +19°C° 0 mm 2 mps 755 mmHg 70%
07:00 +22°C° 0 mm 1 mps 755 mmHg 62%
08:00 +24°C° 0 mm 1 mps 755 mmHg 55%
09:00 +25°C° 0 mm 1 mps 755 mmHg 51%
10:00 +26°C° 0 mm 2 mps 755 mmHg 46%
11:00 +27°C° 0 mm 2 mps 755 mmHg 42%
12:00 +27°C° 0 mm 3 mps 755 mmHg 43%
13:00 +27°C° 0 mm 4 mps 754 mmHg 44%
14:00 +27°C° 0 mm 4 mps 754 mmHg 45%
15:00 +27°C° 0 mm 4 mps 754 mmHg 46%
16:00 +27°C° 0 mm 4 mps 753 mmHg 48%
17:00 +26°C° 0 mm 3 mps 753 mmHg 49%
18:00 +25°C° 0 mm 3 mps 753 mmHg 54%
19:00 +24°C° 0 mm 3 mps 753 mmHg 58%
20:00 +21°C° 0 mm 2 mps 753 mmHg 63%
21:00 +21°C° 0 mm 2 mps 753 mmHg 62%
22:00 +21°C° 0 mm 1 mps 753 mmHg 62%
23:00 +21°C° 0 mm 1 mps 753 mmHg 62%

Day after tomorrow, 17 July, Friday

Time Temperature Precipitation Wind Pressure Humidity
00:00 +20°C° 0 mm 1 mps 753 mmHg 63%
01:00 +20°C° 0 mm 1 mps 753 mmHg 63%
02:00 +20°C° 0 mm 1 mps 753 mmHg 64%
03:00 +19°C° 0 mm 1 mps 753 mmHg 66%
04:00 +18°C° 0 mm 2 mps 753 mmHg 67%
05:00 +18°C° 0 mm 2 mps 753 mmHg 68%
06:00 +20°C° 0 mm 2 mps 753 mmHg 62%
07:00 +23°C° 0 mm 2 mps 753 mmHg 56%
08:00 +26°C° 0 mm 2 mps 754 mmHg 49%
09:00 +27°C° 0 mm 2 mps 754 mmHg 44%
10:00 +28°C° 0 mm 2 mps 754 mmHg 38%
11:00 +30°C° 0 mm 2 mps 753 mmHg 33%
12:00 +30°C° 0 mm 2 mps 753 mmHg 32%
13:00 +30°C° 0 mm 3 mps 753 mmHg 32%
14:00 +30°C° 0 mm 3 mps 753 mmHg 32%
15:00 +30°C° 0 mm 3 mps 753 mmHg 32%
16:00 +30°C° 0 mm 3 mps 753 mmHg 32%
17:00 +30°C° 0 mm 3 mps 753 mmHg 33%
18:00 +28°C° 0 mm 2 mps 753 mmHg 37%
19:00 +26°C° 0 mm 2 mps 753 mmHg 41%
20:00 +24°C° 0 mm 1 mps 753 mmHg 45%
21:00 +24°C° 0 mm 1 mps 753 mmHg 46%
22:00 +23°C° 0 mm 1 mps 754 mmHg 47%
23:00 +20°C° 0 mm 0 mps 754 mmHg 47%

18 July, Saturday

Time Temperature Precipitation Wind Pressure Humidity
00:00 +22°C° 0 mm 1 mps 754 mmHg 48%
01:00 +21°C° 0 mm 2 mps 754 mmHg 48%
02:00 +21°C° 0 mm 2 mps 754 mmHg 49%
03:00 +21°C° 0 mm 2 mps 754 mmHg 53%
04:00 +21°C° 0 mm 3 mps 754 mmHg 56%
05:00 +21°C° 0 mm 3 mps 754 mmHg 60%
06:00 +24°C° 0 mm 3 mps 754 mmHg 57%
07:00 +26°C° 0 mm 3 mps 754 mmHg 53%
08:00 +28°C° 0 mm 4 mps 754 mmHg 50%
09:00 +29°C° 0 mm 4 mps 754 mmHg 46%
10:00 +30°C° 0 mm 4 mps 754 mmHg 42%
11:00 +30°C° 0 mm 4 mps 754 mmHg 38%
12:00 +32°C° 0 mm 4 mps 754 mmHg 37%
13:00 +32°C° 0 mm 4 mps 754 mmHg 36%
14:00 +32°C° 0 mm 4 mps 754 mmHg 35%
15:00 +31°C° 0 mm 3 mps 754 mmHg 33%
16:00 +31°C° 0 mm 3 mps 753 mmHg 32%
17:00 +31°C° 0 mm 2 mps 753 mmHg 31%
18:00 +29°C° 0 mm 2 mps 753 mmHg 35%
19:00 +27°C° 0 mm 2 mps 753 mmHg 40%
20:00 +26°C° 0 mm 2 mps 754 mmHg 44%
21:00 +25°C° 0 mm 3 mps 754 mmHg 52%
22:00 +24°C° 0 mm 3 mps 754 mmHg 60%
23:00 +23°C° 0 mm 4 mps 754 mmHg 68%

19 July, Sunday

Time Temperature Precipitation Wind Pressure Humidity
00:00 +23°C° 0 mm 4 mps 754 mmHg 71%
01:00 +23°C° 0 mm 4 mps 754 mmHg 75%
02:00 +22°C° 0 mm 4 mps 754 mmHg 78%
03:00 +22°C° 0 mm 4 mps 754 mmHg 79%
04:00 +22°C° 0 mm 4 mps 754 mmHg 80%
05:00 +22°C° 0 mm 4 mps 754 mmHg 80%
06:00 +25°C° 0 mm 5 mps 753 mmHg 73%
07:00 +26°C° 0 mm 5 mps 753 mmHg 66%
08:00 +28°C° 0 mm 6 mps 753 mmHg 59%
09:00 +28°C° 0 mm 6 mps 753 mmHg 56%
10:00 +29°C° 0 mm 6 mps 753 mmHg 53%
11:00 +30°C° 0 mm 6 mps 753 mmHg 49%
12:00 +30°C° 0 mm 6 mps 753 mmHg 48%
13:00 +30°C° 0 mm 5 mps 753 mmHg 46%
14:00 +32°C° 0 mm 4 mps 752 mmHg 44%
15:00 +31°C° 0 mm 3 mps 752 mmHg 44%
16:00 +30°C° 0 mm 3 mps 752 mmHg 44%
17:00 +30°C° 0 mm 2 mps 752 mmHg 44%
18:00 +28°C° 0 mm 2 mps 752 mmHg 51%
19:00 +27°C° 0 mm 1 mps 752 mmHg 58%
20:00 +25°C° 0 mm 1 mps 752 mmHg 65%
21:00 +24°C° 0 mm 2 mps 752 mmHg 70%
22:00 +22°C° 0 mm 4 mps 752 mmHg 75%
23:00 +21°C° 0 mm 5 mps 753 mmHg 79%

20 July, Monday

Time Temperature Precipitation Wind Pressure Humidity
00:00 +21°C° 0 mm 5 mps 752 mmHg 81%
01:00 +20°C° 0 mm 5 mps 752 mmHg 82%
02:00 +20°C° 0 mm 5 mps 752 mmHg 83%
03:00 +20°C° 0 mm 5 mps 752 mmHg 83%
04:00 +20°C° 0 mm 6 mps 753 mmHg 83%
05:00 +20°C° 0 mm 6 mps 753 mmHg 83%
06:00 +21°C° 0 mm 6 mps 753 mmHg 76%
07:00 +23°C° 0 mm 6 mps 753 mmHg 69%
08:00 +24°C° 0 mm 6 mps 753 mmHg 62%
09:00 +27°C° 0 mm 6 mps 753 mmHg 55%
10:00 +29°C° 0 mm 6 mps 753 mmHg 49%
11:00 +30°C° 0 mm 6 mps 753 mmHg 43%
12:00 +32°C° 0 mm 5 mps 753 mmHg 40%
13:00 +33°C° 0 mm 5 mps 753 mmHg 38%
14:00 +33°C° 0 mm 5 mps 753 mmHg 35%
15:00 +33°C° 0 mm 5 mps 753 mmHg 36%
16:00 +33°C° 0 mm 5 mps 753 mmHg 36%
17:00 +32°C° 0 mm 6 mps 752 mmHg 37%
18:00 +29°C° 0 mm 5 mps 753 mmHg 42%
19:00 +28°C° 0 mm 5 mps 753 mmHg 47%
20:00 +26°C° 0 mm 4 mps 753 mmHg 52%
21:00 +25°C° 0 mm 4 mps 753 mmHg 55%
22:00 +23°C° 0 mm 4 mps 753 mmHg 59%
23:00 +23°C° 0 mm 4 mps 754 mmHg 63%
Show more